Погода в Пуэрто-Асис

Колумбия     0°30′33″N   76°30′02″W
темп.,
°C
ветер,
м/с
пор.,
м/с
влажн.,
%
обл.,
%
осадки,
мм/ч
давл.,
гПа
погр.,
м
13 мая, чт
чт1301:00+20сз0098100 0.5 101415
04:00+20зсз009963 0.9 101318
07:00+21з019872 1.0 101448
10:00+24с118795 0.2 1016338
13:00+30сз11588 0.3 10121136
16:00+30ююз115715 0.0 10081385
19:00+23ю11935 0.3 101011
22:00+21всв119984 2.3 101312
14 мая, пт
пт1401:00+21ссв00100100 6.9 101323
04:00+21ссз00100100 1.9 101228
07:00+21зсз119983 2.6 101445
10:00+24сз128997 0.2 1015380
13:00+27сз117811 1.8 1012454
16:00+29св0161100 0.1 10081166
19:00+23всв129649 0.4 101057
22:00+22ссв1198100 0.3 101312
15 мая, сб
сб1501:00+21ссз119999 0.3 101215
04:00+21ссз019898 2.1 101123
07:00+22з0010097 7.1 101350
10:00+23ссз0198100 0.6 1015137
13:00+28з217265 1.6 1011824
16:00+26ю1189100 1.7 100972
19:00+23ю119788 2.3 101117
22:00+22з1298100 2.3 101361
16 мая, вс
вс1601:00+22юз1299100 4.8 101265
04:00+22з12100100 2.3 101274
07:00+22вюв01100100 4.9 101351
10:00+22ююз12100100 12.2 1015202
13:00+24зюз1296100 17.4 1013434
16:00+22с00100100 3.7 101144
19:00+22вюв00100100 5.0 101327
22:00+21ссз0010073 0.8 101527
17 мая, пн
пн1701:00+21зсз0010093 0.9 101425
04:00+21с1110081 0.1 101327
07:00+21юв009999 0.3 101556
10:00+22ссз00100100 1.1 101773
13:00+22ссз0199100 3.2 1015102
16:00+21зсз01100100 7.2 101356
19:00+21зсз1210099 10.8 101584
22:00+21зюз1299100 0.0 101672